Location: Leiter
(44.7178°N, 106.2687°W)
Time: 07:25:00
(UTC+00:00)

DX 1 - Pass Details

Date: 09 July 2022
Orbit: 616 x 630 km, 98.4° (Epoch: 17 August)

Event Time Altitude Azimuth Distance (km) Brightness Sun altitude
Rises 05:37:29 0° 358° (N) 2,928 ? -19.7°
Reaches altitude 10° 05:40:17 10° 339° (NNW) 2,013 ? -19.8°
Maximum altitude 05:43:10 18° 298° (WNW) 1,567 ? -20.0°
Drops below altitude 10° 05:46:02 10° 256° (WSW) 1,998 ? -20.2°
Sets 05:48:48 0° 237° (WSW) 2,897 ? -20.4°
